[[{"header":{"parameterUnit":"m.s-1","parameterCategory":1,"la1":30.2992,"la2":30.254,"lo1":-89.0895,"lo2":-89.0443,"dy":0.0025,"dx":0.0025,"nx":19,"ny":19,"refTime":"2026-04-05T09:00:00:Z","depth":0,"parameterNumber":2,"parameterNumberName":"U-component_of_WINDS"},"data":[0,0,0,-1.247,-1.2471,-1.2494,-1.2495,-1.2527,-1.2527,0,0,0,0,0,0,0,0,0,0,0,-1.2463,-1.2463,-1.247,-1.2471,-1.2494,-1.2495,-1.2527,-1.2527,0,0,0,0,0,0,0,0,0,0,0,-1.2462,-1.2463,-1.2463,-1.2471,-1.2494,-1.2495,-1.2526,-1.2508,0,0,0,0,0,0,0,0,0,0,-1.2485,-1.2477,-1.2463,-1.2463,-1.2471,-1.2494,-1.2495,-1.2508,-1.251,-1.2516,0,-1.252,0,-1.2524,-1.2529,-1.2529,0,0,0,-1.2472,-1.2475,-1.2482,-1.2463,-1.2471,-1.2494,-1.2484,-1.2509,-1.2511,-1.2519,-1.252,-1.2521,-1.2524,-1.2529,-1.2529,-1.2558,-1.2558,0,0,-1.2471,-1.2467,-1.2481,-1.2483,-1.2478,-1.2483,-1.2485,-1.251,-1.2512,-1.252,-1.2522,-1.2525,-1.2529,-1.253,-1.2558,-1.2558,0,0,0,-1.2466,-1.2466,-1.2472,-1.2482,-1.2486,-1.2484,-1.2486,-1.2511,-1.2513,-1.2523,-1.2525,-1.2529,-1.253,-1.2558,-1.2558,-1.2556,0,0,0,-1.2466,-1.2463,-1.2472,-1.2469,-1.2486,-1.2499,-1.2486,-1.2512,-1.2515,-1.2525,-1.253,-1.253,-1.2557,-1.2558,-1.2556,-1.2557,0,0,0,-1.2461,-1.2463,-1.2466,-1.2469,-1.2479,-1.2498,-1.2502,-1.2512,-1.2516,-1.2529,-1.253,-1.2557,-1.2558,-1.2556,-1.2557,-1.2563,0,0,0,-1.2456,-1.2465,-1.2466,-1.2477,-1.2479,-1.2497,-1.2502,-1.2516,-1.2527,-1.253,-1.2557,-1.2558,-1.2556,-1.2556,-1.2562,-1.2566,-1.2568,0,0,-1.2466,-1.2467,-1.2474,-1.2474,-1.2491,-1.2494,-1.2511,-1.2526,-1.2532,-1.2549,-1.255,-1.2556,-1.2557,-1.2562,-1.2577,-1.2578,0,0,0,-1.2475,-1.248,-1.2486,-1.2495,-1.2505,-1.2514,-1.2526,-1.2532,-1.2547,-1.2539,-1.2561,-1.2561,-1.2565,-1.2567,-1.2568,-1.2571,-1.2559,-1.2559,-1.2559,-1.2483,-1.2489,-1.2501,-1.2509,-1.2518,-1.253,-1.2539,-1.2549,-1.2553,-1.2558,-1.2563,-1.2571,-1.2573,-1.2574,-1.2577,-1.2566,-1.2566,-1.2566,-1.2566,-1.2497,-1.2505,-1.2509,-1.2522,-1.2529,-1.2541,-1.2553,-1.2556,-1.2569,-1.2568,-1.2571,-1.2569,-1.2575,-1.2578,-1.2566,-1.2566,-1.2566,-1.2566,-1.2566,-1.2502,-1.2507,-1.2513,-1.2526,-1.2536,-1.2546,-1.2557,-1.2564,-1.257,-1.2573,-1.2579,-1.2579,-1.258,-1.2576,-1.2576,-1.2576,-1.2576,-1.2576,-1.2576,-1.2506,-1.2512,-1.252,-1.2531,-1.2538,-1.2547,-1.256,-1.2567,-1.2577,-1.2581,-1.2581,-1.2585,-1.2574,-1.2571,-1.2576,-1.2576,-1.2576,-1.2576,-1.2576,-1.2517,-1.2515,-1.2527,-1.2534,-1.2548,-1.2558,-1.2565,-1.258,-1.2587,-1.2593,-1.2596,-1.2587,-1.2589,-1.2588,-1.2585,-1.2594,-1.2594,-1.2594,-1.2594,-1.2521,-1.2522,-1.2536,-1.2546,-1.2556,-1.2564,-1.2579,-1.259,-1.26,-1.2605,-1.2605,-1.2603,-1.2602,-1.2604,-1.2603,-1.2601,-1.2613,-1.2613,-1.2614,-1.2528,-1.2531,-1.2541,-1.255,-1.2561,-1.2571,-1.2586,-1.2598,-1.2611,-1.2614,-1.261,-1.2609,-1.2605,-1.2603,-1.2606,-1.2604,-1.26,0,0]},{"header":{"parameterUnit":"m.s-1","parameterCategory":1,"la1":30.2992,"la2":30.254,"lo1":-89.0895,"lo2":-89.0443,"dy":0.0025,"dx":0.0025,"nx":19,"ny":19,"refTime":"2026-04-05T09:00:00:Z","depth":0,"parameterNumber":3,"parameterNumberName":"V-component_of_WINDS"},"data":[0,0,0,4.6103,4.6101,4.5992,4.5991,4.5868,4.5867,0,0,0,0,0,0,0,0,0,0,0,4.6148,4.6148,4.6103,4.6101,4.5992,4.5991,4.5869,4.5867,0,0,0,0,0,0,0,0,0,0,0,4.6148,4.6148,4.6147,4.6101,4.5992,4.5991,4.5869,4.5945,0,0,0,0,0,0,0,0,0,0,4.6048,4.6102,4.6148,4.6147,4.61,4.5992,4.5991,4.5948,4.594,4.5926,0,4.5919,0,4.5892,4.5861,4.586,0,0,0,4.6091,4.6109,4.6068,4.6147,4.6099,4.5992,4.6038,4.5943,4.5934,4.5916,4.5917,4.5912,4.589,4.586,4.5859,4.5819,4.5819,0,0,4.6097,4.6134,4.6075,4.6063,4.6084,4.6042,4.6035,4.5937,4.5941,4.5917,4.5909,4.5888,4.5859,4.5858,4.5819,4.5819,0,0,0,4.6121,4.6139,4.61,4.6069,4.6048,4.6039,4.6031,4.5945,4.5929,4.5907,4.5886,4.5859,4.5857,4.5818,4.5819,4.587,0,0,0,4.6124,4.6153,4.6104,4.6126,4.605,4.5995,4.6041,4.5936,4.5924,4.5887,4.5859,4.5856,4.5818,4.5819,4.5868,4.5888,0,0,0,4.6151,4.6156,4.6145,4.6128,4.6082,4.5996,4.5975,4.5933,4.5912,4.586,4.5856,4.5818,4.5819,4.5866,4.5884,4.5888,0,0,0,4.6189,4.6191,4.6146,4.6139,4.6084,4.603,4.5975,4.5932,4.5894,4.5858,4.5818,4.5819,4.5866,4.5882,4.5886,4.5898,4.5907,0,0,4.6212,4.6195,4.6188,4.6145,4.6109,4.6043,4.6014,4.5942,4.5901,4.5848,4.5847,4.5869,4.5884,4.5888,4.5943,4.595,0,0,0,4.6207,4.6203,4.6185,4.6152,4.6099,4.6055,4.5985,4.5958,4.5912,4.5883,4.587,4.5878,4.5879,4.5882,4.5888,4.5886,4.5822,4.5822,4.5822,4.6292,4.6242,4.6227,4.6165,4.6134,4.6062,4.6031,4.5983,4.594,4.5938,4.5921,4.5961,4.5967,4.5972,4.597,4.5924,4.5924,4.5924,4.5925,4.632,4.6305,4.6251,4.6217,4.6164,4.6134,4.6065,4.6036,4.5999,4.5969,4.5967,4.5939,4.5981,4.5977,4.5928,4.5927,4.5927,4.5927,4.5926,4.6369,4.6354,4.6323,4.6271,4.6236,4.6172,4.614,4.6092,4.6047,4.6045,4.6022,4.6021,4.6014,4.6038,4.6038,4.6038,4.6038,4.6038,4.6038,4.6432,4.6396,4.6376,4.6322,4.6295,4.6253,4.6182,4.6153,4.6109,4.6076,4.6076,4.6033,4.5995,4.5987,4.604,4.604,4.604,4.604,4.6039,4.6478,4.6461,4.643,4.6403,4.6335,4.6304,4.6244,4.619,4.6159,4.6145,4.6103,4.6083,4.6061,4.6056,4.6048,4.6114,4.6114,4.6114,4.6114,4.652,4.6505,4.6463,4.6423,4.6379,4.6322,4.6288,4.6232,4.6172,4.6149,4.6133,4.6119,4.6116,4.6096,4.609,4.6081,4.6155,4.6155,4.6155,4.6545,4.6524,4.6504,4.6447,4.639,4.6343,4.6308,4.6263,4.6191,4.6156,4.6131,4.6129,4.6106,4.6101,4.6064,4.6056,4.604,0,0]}]]